Regional Weather Roundup
Issued by NWS

Home | Current Version | Previous Version | Graphics & Text | Print | Product List | Glossary On
Versions: 1 2 3 4 5 6 7 8 9 10 11 12 13 14 15 16 17 18 19 20 21 22 23 24 25 26 27 28 29 30 31 32 33 34 35 36 37 38 39 40 41 42 43 44 45 46 47 48 49 50
000
ASUS43 KFSD 180402
RWRSD

WEATHER ROUNDUP FOR SOUTH DAKOTA
NATIONAL WEATHER SERVICE SIOUX FALLS SD
1100 PM CDT FRI APR 17 2015

NOTE: "FAIR" INDICATES FEW OR NO CLOUDS BELOW 12,000 FEET WITH NO
SIGNIFICANT WEATHER AND/OR OBSTRUCTIONS TO VISIBILITY.


SDZ001>005-009-010-012>017-180500-
NORTHWEST AND NORTH CENTRAL SOUTH DAKOTA

CITY           SKY/WX    TMP DP  RH WIND       PRES   REMARKS
BUFFALO          N/A     51  29  42 SE6       30.03S
FAITH            N/A     54  24  31 S13       30.09S
MOBRIDGE       MOCLDY    50  24  36 CALM      30.05F
$$

SDZ012>016-024>037-041>051-057-063-072>074-180500-
SOUTHWEST AND SOUTH CENTRAL SOUTH DAKOTA

CITY           SKY/WX    TMP DP  RH WIND       PRES   REMARKS
RAPID CTY ARPT LGT RAIN  47  45  93 S6        30.13R
PIERRE         MOCLDY    58  46  64 W9        30.06F
CUSTER         RAIN      40  38  93 E9        30.14S FOG
ELLSWORTH AFB  CLOUDY    49  46  90 S12       30.11
PHILIP         RAIN      52  48  86 S8        30.11S
PINE RIDGE     LGT RAIN  49  46  90 E6        30.09S
WINNER         CLOUDY    55  51  86 S3        30.06F
$$

SDZ004>011-016>023-039-040-180500-
NORTHEAST SOUTH DAKOTA

CITY           SKY/WX    TMP DP  RH WIND       PRES   REMARKS
ABERDEEN       PTCLDY    47  19  33 SE3       30.06S
WATERTOWN      PTCLDY    47  25  42 CALM      30.07F
BROOKINGS      PTCLDY    54  25  32 CALM      30.07F
SISSETON         N/A     46  27  47 W3        30.04F
$$

SDZ017-020-022-023-036>040-048>070-180500-
SOUTHEAST SOUTH DAKOTA

CITY           SKY/WX    TMP DP  RH WIND       PRES   REMARKS
SIOUX FALLS    MOCLDY    59  35  40 NE6       30.05R
HURON          PTCLDY    50  27  40 E3        30.05F
MITCHELL       CLOUDY    61  34  36 CALM      30.05S
YANKTON        MOCLDY    61  48  63 N8        30.02S
$$

ABBREVIATIONS USED IN REMARKS
   TC - TEMPERATURE IN CELSIUS
  WCI - WIND CHILL INDEX
   HX - HEAT INDEX
  VSB - VISIBILITY



USA.gov is the U.S. government's official web portal to all federal, state and local government web resources and services.